Flag for Kuwait Weather past 2 weeks in Kuwait City, Kuwait

84 °F


Feels Like: 84 °F
Forecast: 85 / 102 °F
Wind: 12 mph from South

Location: Kuwait International Airport

Current Time: Oct 7, 2015 at 2:39:31 AM

Latest Report: Oct 7, 2015 at 2:00 AM

Visibility: 10 mi

Pressure: 29.71 "Hg

Humidity: 43%

Dew point: 59 °F

Historic Weather in Kuwait City — Graph


Kuwait City temperature yesterday

Maximum temperature yesterday: 109 °F (at 12:30 PM)
Minimum temperature yesterday: 75 °F (at 6:30 AM)
Average temperature yesterday: 92 °F

Past Weeks' High & Low Weather Summary

High111 °F (Sep 22, 1:30 PM)94% (Oct 1, 3:30 AM)30.04 "Hg (Oct 1, 3:30 AM)
Low72 °F (Sep 30, 6:00 AM)6% (Sep 25, 3:00 PM)29.68 "Hg (Sep 22, 2:00 AM)
Average94 °F28%29.81 "Hg
* Reported Sep 22 2:00 AM — Oct 7 2:00 AM, Kuwait City, Weather by CustomWeather, © 2015

Note: Actual official high and low records may vary slightly from our data, if they occured in-between our weather recording intervals... More about our weather records


Kuwait City weather history for previous 24 hours

Time TempWeatherWind HumidityBarometerVisibility
2:00 AM
Wed, Oct 7
84 °FClear.12 mph43%29.71 "Hg10 mi
1:30 AM86 °FClear.12 mph43%29.71 "Hg10 mi
1:00 AM86 °FClear.10 mph46%29.74 "Hg10 mi
12:30 AM86 °FClear.9 mph49%29.74 "Hg10 mi
12:00 AM88 °FClear.12 mph49%29.74 "Hg10 mi
11:30 PM
Tue, Oct 6
86 °FClear.8 mph40%29.74 "Hg10 mi
11:00 PM88 °FClear.9 mph35%29.74 "Hg10 mi
10:30 PM88 °FClear.9 mph35%29.74 "Hg10 mi
10:00 PM88 °FClear.9 mph43%29.74 "Hg10 mi
9:00 PM91 °FClear.10 mph34%29.74 "Hg10 mi
8:30 PM91 °FClear.8 mph36%29.74 "Hg10 mi
8:00 PM91 °FClear.9 mph30%29.74 "Hg10 mi
7:30 PM93 °FClear.7 mph28%29.74 "Hg10 mi
7:00 PM95 °FClear.8 mph22%29.74 "Hg10 mi
6:30 PM97 °FClear.7 mph22%29.74 "Hg10 mi
6:00 PM99 °FClear.7 mph19%29.74 "Hg10 mi
5:00 PM102 °FSunny.10 mph15%29.74 "Hg10 mi
4:30 PM104 °FSunny.10 mph13%29.74 "Hg10 mi
3:59 PM104 °FSunny.9 mph17%29.74 "Hg10 mi
3:00 PM108 °FSunny.6 mph8%29.74 "Hg10 mi
2:30 PM108 °FSunny.9 mph10%29.74 "Hg10 mi
2:00 PM108 °FSunny.3 mph12%29.74 "Hg10 mi
1:30 PM108 °FSunny.5 mph8%29.74 "Hg10 mi
1:00 PM108 °FSunny.3 mph7%29.77 "Hg10 mi
12:30 PM109 °FSunny.6 mph7%29.77 "Hg10 mi
12:00 PM108 °FSunny.6 mph8%29.80 "Hg10 mi
11:00 AM106 °FSunny.8 mph9%29.80 "Hg10 mi
10:30 AM104 °FSunny.8 mph9%29.83 "Hg10 mi
10:00 AM102 °FSunny.8 mph10%29.83 "Hg5 mi
9:30 AM99 °FSunny.7 mph11%29.83 "Hg4 mi
9:00 AM95 °FSunny.5 mph11%29.83 "Hg4 mi
8:30 AM91 °FSunny.5 mph12%29.83 "Hg4 mi
8:00 AM88 °FSunny.No wind13%29.83 "Hg4 mi
7:30 AM84 °FSunny.3 mph15%29.83 "Hg4 mi
7:00 AM81 °FClear.5 mph16%29.80 "Hg5 mi
6:30 AM75 °FClear.5 mph19%29.80 "Hg5 mi
6:00 AM77 °FSunny.No wind18%29.80 "Hg10 mi
5:30 AM79 °FClear.5 mph17%29.77 "Hg10 mi
5:00 AM77 °FClear.3 mph18%29.77 "Hg10 mi
4:30 AM77 °FClear.No wind18%29.77 "Hg10 mi
4:00 AM77 °FClear.3 mph18%29.77 "Hg10 mi
3:00 AM79 °FClear.7 mph17%29.77 "Hg5 mi
2:30 AM79 °FClear.6 mph17%29.77 "Hg5 mi
2:00 AM79 °FClear.3 mph17%29.77 "Hg5 mi
Weather by CustomWeather, © 2015

See weather overviewHow to use our weather pages